Theta_e
298 298 299 303 306 301 299 299 299 300 300 300 299 299 301 305 305 304 306 307 306 306 306 307 305 303 303 298 296 296 298 299 301 303 302 305 308 308 310 306 304 304 301 299 297 296 295
298 298 298 304 304 300 299 300 300 300 299 300 300 299 299 301 303 304 304 306 306 305 306 305 306 306 301 302 297 295 298 300 300 301 299 300 304 306 304 302 304 301 300 299 298 297 295
298 297 297 302 304 300 299 300 300 301 300 300 301 299 299 300 302 302 302 303 304 304 305 304 304 305 298 298 297 295 298 298 299 299 298 296 301 305 303 302 300 300 300 297 295 299 297
298 297 297 299 305 302 301 300 302 304 305 304 304 302 300 300 300 301 301 303 304 304 303 302 304 303 299 297 296 296 297 298 298 298 297 296 298 295 298 299 298 303 301 303 294 295 296
299 298 297 297 301 304 306 307 308 309 309 308 306 302 301 300 301 300 301 304 304 303 303 302 302 301 300 296 296 294 295 295 298 298 296 295 294 293 297 302 300 299 302 305 298 290 297
304 302 298 297 298 301 303 308 310 311 311 311 309 307 302 302 302 302 303 305 304 303 300 301 299 301 296 295 295 294 294 295 295 296 297 294 291 292 290 296 301 299 299 296 299 291 290
314 310 306 302 300 298 299 299 303 308 312 312 313 311 305 301 302 303 304 306 302 303 297 294 294 295 295 295 294 293 293 294 294 293 295 292 295 295 290 289 290 292 293 293 291 289 288
315 315 315 316 316 314 311 308 305 308 314 316 315 313 309 303 302 302 304 303 302 299 299 296 295 294 294 294 294 294 293 294 294 294 292 294 295 291 289 289 290 291 291 290 289 289 288
316 316 315 315 315 315 316 316 314 314 314 315 316 315 312 304 302 302 304 304 305 303 301 298 295 294 293 294 292 292 292 291 292 291 290 296 291 290 290 289 290 289 289 289 289 288 287
317 317 318 317 317 317 317 317 317 318 318 318 317 316 311 307 302 300 303 303 304 306 306 306 299 295 293 293 294 292 290 291 291 292 290 291 289 290 290 290 289 290 288 288 288 288 290
322 322 322 322 319 318 318 318 319 319 319 319 319 317 312 303 300 301 302 303 304 305 315 302 298 294 293 293 291 293 290 291 291 291 292 294 289 290 290 290 288 290 288 287 288 287 286
322 322 322 322 322 320 319 318 319 319 320 319 319 318 314 304 298 299 305 304 306 312 314 304 297 296 295 293 292 292 291 289 289 290 289 288 287 288 289 288 288 288 287 287 287 287 292
320 320 320 320 321 321 321 321 319 319 319 319 320 319 312 303 297 299 308 304 311 315 305 306 300 295 294 294 293 291 291 291 293 297 294 289 289 287 288 288 287 287 288 298 299 296 299
316 317 318 319 319 320 320 320 320 320 319 319 319 319 312 304 297 303 305 305 315 313 309 297 296 295 297 292 292 291 291 292 287 288 290 294 298 288 287 287 289 287 288 298 299 297 295
312 312 313 315 316 317 318 319 319 319 319 318 317 316 312 303 297 305 303 312 316 309 300 299 297 297 298 293 291 291 290 291 290 287 294 291 291 287 287 287 287 287 289 286 286 282 287
311 310 310 310 312 314 315 316 318 319 318 318 315 312 307 299 299 302 303 316 310 299 295 296 303 300 301 296 294 291 292 291 290 287 286 289 293 287 287 287 285 286 285 289 289 294 291
305 307 310 310 309 310 312 313 315 318 317 316 313 308 303 296 300 300 314 307 303 296 295 297 298 298 296 296 292 292 295 291 288 287 287 286 288 287 286 286 286 285 286 285 287 288 293
305 305 305 306 309 309 309 310 311 313 316 314 305 316 299 298 309 298 302 300 297 295 293 294 292 294 295 292 290 290 292 291 288 288 288 287 286 287 287 284 284 284 285 286 292 290 284
303 303 304 305 306 308 308 308 309 309 312 311 312 311 301 298 315 305 300 298 296 295 294 294 294 292 292 292 302 291 290 288 288 288 288 288 289 290 290 285 283 285 285 285 284 284 283
302 303 303 303 303 304 306 307 307 309 310 310 309 316 305 297 295 305 307 303 302 294 295 293 293 292 290 291 290 299 291 289 288 288 290 289 287 290 305 298 287 285 286 286 287 286 290
300 301 301 301 302 302 303 304 306 308 308 308 307 312 305 312 306 300 302 305 302 300 293 293 293 292 293 297 297 295 295 291 288 289 290 288 287 286 286 286 286 286 286 286 286 288 289
299 299 300 300 300 300 301 302 304 307 308 307 309 308 300 304 300 299 301 302 304 305 300 300 296 302 294 300 303 307 294 292 292 287 288 286 289 285 288 286 287 286 286 287 287 287 287
299 299 299 300 300 300 300 300 302 304 306 306 304 300 302 308 302 302 304 304 307 304 303 301 299 301 297 296 294 290 292 291 292 288 289 287 289 289 292 285 285 288 286 286 287 286 286
298 298 298 299 300 299 300 300 300 300 304 306 305 302 303 306 305 306 305 302 305 306 306 299 296 298 294 289 288 286 286 287 286 287 289 289 289 289 290 287 294 289 282 282 286 285 284
297 298 298 298 298 298 298 299 300 299 300 303 304 302 302 305 305 305 305 305 303 299 300 298 294 292 289 290 292 294 290 288 288 287 286 289 289 291 291 288 290 290 282 283 285 285 284
297 297 296 297 298 297 297 299 299 299 300 300 302 303 301 303 304 303 303 302 305 300 295 292 287 288 289 293 294 297 300 293 289 284 284 287 288 289 287 289 293 285 281 280 281 282 279
297 296 296 296 296 297 297 297 298 298 298 299 300 301 300 300 300 301 303 304 297 295 296 289 287 287 288 292 294 295 294 290 292 288 282 285 287 288 289 289 288 285 281 280 283 284 278
296 296 296 296 296 296 296 296 295 298 298 299 299 299 300 300 301 296 297 296 293 294 302 289 289 286 287 291 293 292 291 287 286 287 284 286 287 287 288 288 287 280 279 283 282 277 278
296 295 296 296 296 295 295 295 295 297 298 298 299 299 299 297 296 293 294 295 292 295 296 288 293 288 289 291 290 292 292 284 286 289 285 289 289 287 288 288 282 281 281 278 276 277 277
Wind_Speed
17 17 18 20 21 21 21 21 22 23 21 19 17 17 14 12 12 12 10 7 6 8 7 6 10 12 4 5 2 17 18 13 7 5 9 2 3 3 5 4 3 4 3 5 6 9 7
16 17 18 19 20 19 20 20 22 24 22 19 18 18 16 12 9 10 9 6 3 5 7 7 9 10 1 1 5 18 13 11 15 10 10 7 2 2 6 4 3 3 6 7 2 3 4
16 17 17 18 19 20 21 22 24 26 25 22 19 19 17 15 8 8 10 7 6 6 6 7 7 5 5 1 4 16 8 11 12 8 3 7 2 5 3 5 6 6 5 3 1 2 2
15 15 16 16 18 19 20 21 22 24 26 24 23 21 20 17 15 11 12 12 9 7 6 6 2 1 2 3 3 17 13 5 9 8 8 6 11 8 4 3 4 3 3 2 1 0 3
16 16 15 15 17 18 19 20 22 24 26 28 27 24 21 20 17 13 15 15 11 10 6 3 1 2 2 2 4 15 12 6 5 4 10 6 7 4 4 4 3 4 3 3 2 1 4
17 17 17 17 17 18 20 21 22 24 26 28 28 26 24 22 17 14 17 12 4 4 3 1 4 4 4 3 6 13 8 6 4 2 3 7 5 4 3 3 4 4 3 4 5 2 3
18 18 17 17 18 18 18 19 20 22 24 26 27 26 25 23 16 17 14 1 5 3 13 5 2 4 3 7 1 9 8 3 3 8 3 4 3 4 4 3 3 3 3 4 1 2 2
16 18 18 19 19 19 20 21 21 22 24 25 28 26 25 25 13 16 8 7 4 0 2 2 2 3 0 5 3 6 9 4 5 3 3 3 2 3 4 2 2 2 2 4 2 1 1
18 19 20 21 22 22 21 21 23 23 24 26 28 29 26 23 9 11 13 7 4 2 1 1 0 1 1 2 2 5 5 2 4 3 2 5 3 5 2 2 2 1 3 2 2 6 1
20 20 21 22 22 23 23 24 24 24 25 27 29 32 28 20 4 9 4 3 4 1 4 2 2 1 1 2 2 2 4 2 4 3 2 4 3 5 3 2 3 3 3 2 2 3 3
19 19 20 22 22 22 22 23 23 24 25 27 28 30 27 17 9 3 6 5 3 1 4 2 2 2 2 1 1 2 4 3 4 3 2 0 5 2 2 2 4 3 3 2 2 2 3
19 21 21 21 22 22 23 24 23 24 25 26 27 28 25 13 8 7 6 3 1 5 6 3 1 3 5 4 4 4 1 6 3 4 3 2 1 3 2 2 1 5 3 2 2 2 2
18 20 21 22 23 23 25 25 26 26 27 26 27 28 23 13 6 9 5 2 4 3 1 2 1 3 2 3 3 5 5 1 3 1 3 1 2 2 2 3 1 2 2 3 3 1 4
20 21 21 20 21 21 23 25 24 27 29 29 27 27 20 11 8 5 3 3 3 2 4 2 1 1 3 2 2 1 1 4 3 1 2 4 5 7 5 2 4 4 2 4 6 3 3
20 20 21 22 22 23 23 23 23 24 25 29 28 17 16 7 5 1 4 2 6 4 2 1 1 0 2 0 2 3 5 4 5 9 8 4 4 1 1 2 1 5 3 1 5 2 2
22 22 21 21 22 22 24 24 23 22 23 24 18 8 8 6 3 2 3 6 5 3 4 1 2 1 4 1 2 2 2 4 3 3 3 1 5 1 2 2 2 2 6 3 0 4 6
22 21 21 21 22 22 22 23 23 23 22 24 8 2 2 2 2 2 3 7 4 2 2 4 7 6 9 5 6 4 4 3 3 4 2 2 1 1 2 8 8 4 3 1 1 3 4
21 22 22 21 22 21 22 21 22 20 18 13 2 3 1 5 2 1 3 5 2 4 2 5 3 4 6 6 6 6 8 5 6 7 6 5 3 5 8 0 1 2 6 6 4 6 2
19 20 20 21 21 20 21 23 22 23 18 8 2 2 4 3 4 4 3 4 4 6 5 6 7 7 4 6 4 6 5 2 5 6 6 6 3 4 3 2 4 4 6 4 4 2 9
20 20 20 21 22 21 20 20 19 19 16 8 3 3 2 2 4 3 4 5 4 4 4 3 2 2 2 4 3 4 4 1 3 3 4 7 4 7 12 0 4 6 7 12 8 4 7
21 21 22 21 21 21 21 18 17 15 12 3 3 3 2 3 3 4 2 2 3 5 2 1 2 9 8 6 4 8 7 3 4 7 4 5 5 5 10 9 8 9 8 16 21 24 12
22 22 22 22 22 21 21 19 16 14 13 4 3 2 2 3 1 4 5 5 4 6 6 6 7 7 8 7 10 6 7 5 5 3 6 4 4 2 5 7 9 15 14 19 23 23 25
23 23 22 22 21 21 21 18 17 14 16 6 5 1 1 2 3 3 5 6 6 4 9 3 8 4 9 20 5 3 7 4 4 9 9 5 4 1 5 3 7 13 14 23 13 9 20
24 23 24 24 23 23 22 21 19 16 16 18 10 5 3 13 8 10 4 6 7 10 15 5 5 5 1 5 5 3 4 5 7 9 8 6 5 3 4 3 7 1 3 1 13 5 10
25 23 24 25 25 24 26 24 19 17 17 19 19 7 3 10 8 9 13 11 5 3 4 4 5 0 7 3 1 2 2 3 5 7 6 5 4 2 3 3 12 6 3 4 5 6 13
24 25 25 25 25 25 27 24 22 20 18 19 21 25 6 4 9 12 8 9 11 4 2 4 2 4 3 3 3 5 5 3 4 3 1 9 7 6 3 4 7 2 3 3 3 4 4
26 24 24 24 25 23 25 23 23 24 22 20 17 18 10 3 4 5 6 7 5 1 2 2 4 3 2 4 6 6 5 5 5 7 7 6 4 14 11 6 9 4 6 3 2 3 6
27 26 25 25 25 25 23 24 27 23 23 21 19 18 12 5 7 6 5 5 3 4 8 4 3 2 2 5 5 4 5 6 2 4 6 9 10 5 7 6 11 6 5 7 2 2 6
23 23 22 23 23 23 24 28 24 24 22 21 20 17 16 6 4 5 12 17 9 4 3 6 2 4 5 4 4 2 3 2 3 4 4 5 6 6 11 7 2 13 1 3 3 5 5
Wind_Direction
28 29 28 27 26 27 27 26 25 23 22 22 21 18 16 14 16 15 16 27 39 27 12 351 345 354 354 46 340 344 351 1 10 31 50 49 67 117 115 102 79 82 132 57 83 88 82
28 27 27 28 27 27 28 27 26 22 20 21 18 13 8 358 3 8 4 3 344 351 350 336 336 342 19 344 346 348 353 18 31 46 40 36 110 121 97 77 71 96 99 130 72 99 114
28 26 25 27 26 26 27 25 23 22 19 17 14 10 6 3 337 343 352 332 341 340 328 324 330 354 61 150 2 359 15 35 31 40 59 28 69 65 114 96 159 145 96 115 51 167 145
27 27 26 25 25 26 25 23 23 22 21 16 11 6 5 360 348 322 323 319 283 343 326 335 342 35 113 2 350 11 25 52 51 64 72 58 81 96 58 110 45 79 89 178 101 172 163
22 22 23 21 21 20 21 20 20 18 17 14 11 7 2 357 350 338 329 318 294 278 304 322 68 89 98 16 20 360 4 1 356 45 52 62 66 78 38 84 41 23 251 217 239 84 166
22 20 16 15 17 15 12 14 14 14 12 12 8 6 1 357 353 350 338 325 317 315 327 280 66 81 33 314 321 344 356 8 29 319 35 43 50 87 53 112 229 215 233 244 234 187 209
28 25 20 17 12 10 8 6 8 10 9 8 7 4 359 353 349 352 352 9 20 357 44 116 318 326 329 324 204 12 357 359 7 48 53 4 86 205 181 187 144 143 191 245 240 107 289
11 10 10 12 12 9 7 5 4 6 6 5 3 1 358 353 351 359 8 71 129 229 330 337 157 159 223 343 341 343 4 101 84 109 329 25 231 170 120 131 147 151 170 247 251 131 249
356 356 355 354 353 354 357 360 359 360 360 358 358 356 356 354 351 8 52 68 33 68 93 300 80 329 275 49 156 305 15 68 82 108 36 173 130 141 124 80 161 230 206 211 252 330 256
341 344 345 344 345 344 345 348 351 353 353 353 353 353 349 354 2 357 56 32 4 346 61 225 255 254 316 88 345 345 26 86 45 154 115 98 137 151 147 186 166 255 107 96 322 3 262
331 332 333 333 331 334 336 338 340 342 346 347 348 349 347 352 330 17 326 307 315 135 354 85 354 340 40 79 26 33 35 17 125 123 148 159 151 161 188 209 177 187 143 148 150 143 355
333 332 329 324 329 322 324 326 328 331 334 337 339 343 344 344 329 336 341 319 256 38 262 18 12 342 338 14 357 333 68 55 146 115 65 86 329 164 150 105 126 139 104 81 72 124 248
337 335 333 329 328 324 321 317 318 322 325 326 330 335 332 329 315 323 332 349 10 143 104 341 20 43 355 318 348 23 353 344 200 158 199 145 215 171 145 128 186 180 188 315 309 295 248
342 340 337 334 330 328 326 323 314 314 315 316 321 325 320 298 297 308 315 40 221 256 235 146 201 254 234 43 211 328 273 272 219 98 121 201 283 184 171 192 178 181 223 180 250 249 286
345 345 342 341 340 335 329 325 327 325 322 312 317 317 302 267 274 243 69 9 231 222 76 36 224 294 252 179 262 321 213 237 209 187 187 160 247 172 46 133 183 153 195 55 102 119 312
342 340 339 345 343 341 343 338 328 321 319 321 322 303 263 249 195 162 93 235 239 136 149 198 187 99 319 324 325 343 213 168 212 183 53 347 290 259 130 99 29 170 145 92 332 267 266
325 330 335 339 339 343 342 347 342 336 328 321 318 337 248 185 166 28 208 219 254 202 173 184 197 210 221 206 185 210 259 246 148 138 75 113 168 61 65 205 180 143 195 197 114 187 212
329 327 321 323 330 332 335 341 346 338 344 335 26 272 125 170 323 46 208 205 135 183 182 225 228 244 229 182 194 222 226 228 158 155 170 190 191 229 215 1 336 188 192 183 185 201 224
327 322 321 323 319 325 333 336 333 333 348 329 245 251 186 166 213 207 240 272 222 171 224 190 216 208 169 213 248 209 220 46 161 167 161 181 215 301 263 40 355 216 198 201 92 69 201
322 322 324 321 315 313 319 328 334 336 336 332 306 284 181 91 309 204 194 212 235 238 229 191 202 136 152 222 257 283 247 124 178 199 173 158 215 219 253 193 121 198 204 203 189 183 215
316 318 319 320 321 321 316 316 326 328 328 304 182 264 315 281 234 240 26 351 203 250 193 126 267 230 187 208 215 219 229 203 201 214 193 179 246 241 268 267 244 233 211 203 212 222 220
309 313 315 315 315 320 320 317 310 316 304 232 274 250 187 285 293 181 174 204 227 230 174 218 220 260 223 245 230 249 155 180 204 156 159 179 260 35 274 272 279 271 242 232 224 231 246
306 306 307 310 310 309 310 313 305 305 280 244 224 261 191 233 194 200 227 226 238 191 218 254 207 236 207 234 189 162 199 191 186 170 183 162 206 202 268 337 317 280 240 221 226 221 225
302 302 305 304 303 306 309 309 306 291 274 258 238 202 210 269 249 256 207 215 247 259 270 196 178 194 162 101 107 160 207 225 217 208 184 164 156 180 283 349 263 39 176 183 229 238 205
297 301 304 303 302 302 301 305 300 295 285 273 256 224 207 270 257 267 255 254 240 240 258 240 204 138 154 134 130 260 244 292 239 196 174 144 171 212 252 225 306 296 183 171 175 256 214
295 299 299 302 303 304 305 302 307 300 288 285 275 261 242 276 244 243 242 254 260 201 235 206 44 121 120 175 167 220 228 221 218 162 73 173 209 191 151 238 254 206 196 191 141 277 176
286 288 295 299 299 300 304 306 302 301 295 283 277 274 251 273 217 192 230 260 169 180 227 145 174 159 267 193 199 207 227 160 208 190 167 162 197 217 214 240 274 216 164 149 143 217 158
294 287 286 296 304 304 298 298 302 302 294 291 276 272 244 260 272 212 206 196 185 189 252 131 102 198 157 221 215 205 209 208 155 176 181 172 169 185 197 215 264 137 98 174 195 42 139
296 295 285 288 297 304 307 303 298 299 296 296 282 269 257 239 275 270 250 240 242 236 193 185 269 154 186 196 215 205 213 152 162 244 159 210 199 179 198 210 131 194 87 150 153 143 164